OneWeb SL0362

operational
NORAD ID: 49288 Int'l Des: 2021-090 Owner: ONEWEBN Country: UK Constellation: oneweb
LEOCIRCULARPOLARONEWEB_TYPE

About OneWeb SL0362

Description loading...

Live Position

Loading 3D Globe...

Upcoming Passes

Altitude History

Altitude vs Time

uPlot chart will show altitude changes over time

Two-Line Element Set

1 49288U 21090K 26035.34619564 .00000029 00000-0 39532-4 0 9994
2 49288 87.9243 331.4232 0001681 87.7635 272.3690 13.19728208209399
Epoch: Feb 4, 2026 • Age: 14 hours

Current Status

Altitude 1195.0 km
Velocity 7.26 km/s
Sub-Earth Point -23.27°S, 46.05°E
Launch Date Oct 14, 2021
Age 4.3 years
Type internet

Technical Details

Classification Payload
Mass 148.00 kg
Dry Mass 140.00 kg
Total Mass 148.00 kg
Length 1.30 m
Diameter 1.00 m
Span 5.00 m
Shape Trapezoid+2 pan
Manufacturer ONEWUS
Bus Type ARROW
Phase Status In Orbit
Owner/State ONEWEBN/UK

Large Constellations

Loading constellations...